"Time","Temp","Dewpoint","Humidity","Pressure","Direction","Speed","Gust","Precip","PrecipRate"
"00:04:56","51.8","50.9","96.7","29.42","326","4.7","13.2","0.02","0.35"
"00:09:59","51.5","50.4","96","29.42","325","4.8","11.5","0.06","0.35"
"00:14:58","51.3","50.4","96.4","29.42","302","3.8","15","0.08","0.36"
"00:19:56","51.1","50.1","96.3","29.41","329","7","21.6","0.11","0.36"
"00:24:57","50.9","49.8","96","29.41","327","5.1","21.9","0.13","0.35"
"00:29:57","50.8","49.7","96","29.41","322","7","15.6","0.14","0.34"
"00:34:58","50.8","49.7","96","29.39","327","6.5","16.1","0.16","0.32"
"00:39:56","50.7","49.7","96.2","29.39","340","8","18.4","0.17","0.30"
"00:44:56","50.7","49.7","96.4","29.39","340","7.1","17.3","0.18","0.28"
"00:49:57","50.7","49.6","96","29.36","348","7.2","16.1","0.18","0.26"
"00:54:57","50.7","49.6","96","29.36","339","7.4","16.1","0.19","0.24"
"00:59:58","50.8","49.7","96","29.36","322","8.4","16.1","0.20","0.23"
"01:04:58","50.9","49.8","96","29.34","314","7","18","0.20","0.20"
"01:09:56","50.9","49.8","96","29.34","334","7.8","18.4","0.20","0.18"
"01:14:58","50.9","49.8","96","29.34","332","6.9","17.3","0.21","0.14"
"01:19:59","51","49.9","96","29.34","336","6.8","16.1","0.21","0.13"
"01:24:56","51","49.9","96","29.34","325","10.2","24.2","0.21","0.10"
"01:29:56","51.1","50","96","29.34","330","7.4","18.4","0.21","0.08"
"01:34:56","51.1","50","96","29.33","325","9.2","17.3","0.21","0.07"
"01:39:57","51.1","50","96","29.33","327","8.4","18.4","0.21","0.05"
"01:44:57","51.1","50","96","29.33","322","7.9","17.3","0.22","0.04"
"01:49:58","51.2","50.1","96","29.31","334","8","17.3","0.22","0.04"
"01:54:59","51.2","50.1","96","29.31","330","7.9","17.3","0.22","0.04"
"01:59:56","51.2","50.1","96","29.33","337","7.9","17.3","0.22","0.03"
"02:04:56","51.2","50.1","96","29.33","327","7.2","22.8","0.22","0.02"
"02:09:59","51.1","50","96","29.33","338","8.2","23","0.22","0.02"
"02:14:58","51.1","50","96","29.33","330","8.9","18.4","0.22","0.02"
"02:19:59","51.1","50","96","29.31","318","8.1","18","0.22","0.01"
"02:24:56","51","49.9","96","29.31","328","8.5","20.7","0.22","0.01"
"02:29:57","51","49.9","96","29.31","336","7.5","18.4","0.22","0.01"
"02:34:58","50.9","49.8","96","29.31","325","7.8","16.1","0.22","0.01"
"02:39:56","50.9","49.8","96","29.31","325","9.2","17.3","0.23","0.01"
"02:44:57","50.8","49.6","95.7","29.31","327","7.8","18.4","0.23","0.02"
"02:49:58","50.8","49.4","95","29.30","322","9.5","20.7","0.23","0.01"
"02:54:59","50.7","49.3","95","29.30","330","9.2","19.6","0.23","0.01"
"02:59:56","50.8","49.4","95","29.31","327","9.6","24.2","0.23","0.01"
"03:04:58","50.8","49.4","95","29.31","332","8.8","20.7","0.23","0.01"
"03:09:56","50.8","49.3","94.8","29.31","339","9.5","24","0.23","0.01"
"03:14:59","50.8","49.1","94","29.31","322","9.3","24.2","0.23","0.01"
"03:19:56","50.7","49","94","29.31","332","7.5","27.6","0.23","0.01"
"03:24:57","50.7","49","94","29.31","328","9.8","27.6","0.23","0.01"
"03:29:58","50.6","48.9","94","29.31","320","7.7","20.7","0.23","0.01"
"03:34:59","50.6","48.9","94","29.31","332","8.6","19.6","0.23","0.01"
"03:39:58","50.5","49","94.8","29.31","322","6.9","17.3","0.23","0.01"
"03:44:59","50.5","49.1","95","29.31","333","6.5","15.6","0.23","0.00"
"03:49:56","50.5","49.1","95","29.30","320","5.2","18","0.23","0.00"
"03:54:58","50.5","49","94.8","29.30","335","9.7","20.4","0.23","0.00"
"03:59:59","50.5","48.8","94","29.30","332","7.5","18.4","0.23","0.00"
"04:04:59","50.5","48.8","94","29.29","310","8.5","24.2","0.24","0.01"
"04:09:57","50.5","48.8","94","29.29","328","6.2","15","0.24","0.01"
"04:14:56","50.4","48.7","94","29.29","322","5.7","14.4","0.24","0.01"
"04:19:57","50.3","48.6","94","29.28","323","7.5","16.1","0.24","0.01"
"04:24:58","50.3","48.6","94","29.28","328","8.1","18.4","0.24","0.01"
"04:29:58","50.2","48.5","94","29.28","330","7.5","16.1","0.24","0.01"
"04:34:58","50.2","48.4","93.7","29.27","323","9.1","19.6","0.24","0.01"
"04:39:56","50.2","48.3","93","29.27","323","7.7","16.8","0.24","0.01"
"04:44:59","50.2","48.3","92.9","29.27","323","9.1","20.4","0.24","0.01"
"04:49:56","50.2","48","92","29.27","323","7.8","20.7","0.24","0.01"
"04:54:58","50.2","48","92","29.27","330","7.9","18","0.24","0.01"
"04:59:58","50.2","47.8","91.1","29.28","322","6","15","0.24","0.01"
"05:04:59","50.2","47.7","91","29.28","310","7.2","18.4","0.24","0.01"
"05:09:57","50.3","47.6","90.4","29.28","327","7.7","20.7","0.24","0.00"
"05:14:56","50.3","47.4","89.6","29.29","324","7.1","16.8","0.24","0.00"
"05:19:57","50.3","47.2","89","29.29","299","6.6","16.8","0.24","0.00"
"05:24:58","50.2","47.1","89","29.29","318","7.4","23","0.24","0.00"
"05:29:59","50.2","46.8","88.1","29.30","320","6.9","15","0.24","0.00"
"05:34:56","50.2","46.8","88","29.30","327","7","27.6","0.24","0.00"
"05:39:59","50.2","46.8","88","29.30","332","6.4","19.2","0.24","0.00"
"05:44:56","50.2","46.5","86.9","29.30","336","8.9","21.9","0.24","0.00"
"05:49:57","50.2","46.3","86.2","29.30","329","6.9","18.4","0.24","0.00"
"05:54:58","50.2","46.2","86.3","29.30","317","5.9","20.4","0.24","0.00"
"05:59:59","50.2","46","85.1","29.31","327","9.1","20.7","0.24","0.00"
"06:04:59","50.3","45.8","84.3","29.31","322","8.9","24","0.24","0.00"
"06:09:59","50.4","45.4","83.2","29.31","327","8.1","19.6","0.24","0.00"
"06:14:57","50.4","45.4","83","29.31","324","8.2","23","0.24","0.00"
"06:19:58","50.3","45.3","83","29.31","321","7.7","20.7","0.24","0.00"
"06:24:59","50.2","44.9","82","29.31","311","8.2","22.8","0.24","0.00"
"06:29:56","50.2","44.7","81.3","29.31","330","11","21.9","0.24","0.00"
"06:34:57","50.3","44.4","80.2","29.31","318","10.9","24.2","0.24","0.00"
"06:39:56","50.3","44.2","79.6","29.31","325","10.4","25.3","0.24","0.00"
"06:44:57","50.2","43.9","78.8","29.31","316","10.3","20.7","0.24","0.00"
"06:49:58","50.2","43.8","78.5","29.31","330","9.4","22.8","0.24","0.00"
"06:54:59","50.2","43.6","78","29.31","313","9.3","24.2","0.24","0.00"
"06:59:56","50.1","43.4","77.7","29.31","327","11.7","26.4","0.24","0.00"
"07:04:57","50.2","43.3","77","29.31","325","10.9","23","0.24","0.00"
"07:09:59","50.2","43.2","76.7","29.31","320","9.9","20.4","0.24","0.00"
"07:14:58","50.2","42.9","76","29.31","328","10","28.8","0.24","0.00"
"07:19:59","50.2","42.7","75.5","29.31","308","9.8","24.2","0.24","0.00"
"07:24:57","50.3","42.5","74.7","29.31","320","11.2","26.5","0.24","0.00"
"07:29:58","50.1","42.3","74.5","29.31","306","7.8","24","0.24","0.00"
"07:34:56","50.1","41.9","73.2","29.31","311","9.3","24.2","0.24","0.00"
"07:39:58","50.1","41.6","72.4","29.31","317","9.7","21.9","0.24","0.00"
"07:44:56","50.2","41.3","71.3","29.33","343","13.4","30","0.24","0.00"
"07:49:58","50.2","41.4","71.7","29.33","323","7.3","20.7","0.24","0.00"
"07:54:59","50","41","70.9","29.33","328","9.2","20.7","0.24","0.00"
"07:59:57","50.1","40.7","70","29.34","329","10.8","21.9","0.24","0.00"
"08:04:57","50.1","40.5","69.6","29.34","318","9","21.9","0.24","0.00"
"08:09:59","50","40.3","69.1","29.34","326","7.4","20.7","0.24","0.00"
"08:14:58","49.9","40.4","69.6","29.35","336","9.3","22.8","0.24","0.00"
"08:19:58","50","40.1","68.8","29.35","314","11.6","36","0.24","0.00"
"08:24:59","50.1","40.3","69.2","29.35","309","7.1","26.5","0.24","0.00"
"08:29:56","50","40","68.6","29.36","325","7.5","23","0.24","0.00"
"08:34:57","49.9","39.7","67.8","29.36","307","8.6","30","0.24","0.00"
"08:39:58","49.9","39.2","66.5","29.36","316","13.1","25.3","0.24","0.00"
"08:44:59","50","39.4","66.8","29.36","315","10.8","26.5","0.24","0.00"
"08:49:56","50.1","39.4","66.3","29.36","316","7.9","26.5","0.24","0.00"
"08:54:57","50","39.3","66.5","29.36","309","8.7","17.3","0.24","0.00"
"08:59:58","49.9","39.1","66.1","29.36","327","11.5","26.5","0.24","0.00"
"09:04:58","49.9","38.9","65.8","29.36","335","12.1","20.4","0.24","0.00"
"09:09:56","49.7","38.7","65.7","29.36","329","12.1","23","0.24","0.00"
"09:14:59","49.7","38.4","65","29.36","319","12.8","32.4","0.24","0.00"
"09:19:56","49.7","38.5","65.2","29.36","310","11.3","30","0.24","0.00"
"09:24:57","49.6","38.3","64.8","29.36","325","13.2","31.2","0.24","0.00"
"09:29:57","49.5","37.7","63.8","29.37","323","14","32.4","0.24","0.00"
"09:34:58","49.4","37.4","63.5","29.37","320","14.3","34.8","0.24","0.00"
"09:39:56","49.2","37.1","63","29.37","336","13","34.8","0.24","0.00"
"09:44:57","49","36.9","62.8","29.38","301","11.5","25.3","0.24","0.00"
"09:49:58","49","37.2","63.6","29.38","313","8.8","25.3","0.24","0.00"
"09:54:59","49","37.1","63.3","29.38","307","9.6","26.5","0.24","0.00"
"09:59:59","49.1","37","62.9","29.39","302","9.5","21.6","0.24","0.00"
"10:04:56","49.1","36.5","61.8","29.39","319","15.5","39.6","0.24","0.00"
"10:09:58","49.2","36.5","61.3","29.39","329","11.9","25.3","0.24","0.00"
"10:14:56","49.9","36.7","60.2","29.39","287","11.1","20.7","0.24","0.00"
"10:19:57","50","36.8","60.3","29.39","332","11","25.2","0.24","0.00"
"10:24:59","49.7","36.4","60.1","29.39","313","12.2","31.2","0.24","0.00"
"10:29:59","49.5","36.2","60.2","29.39","318","11.7","31.2","0.24","0.00"
"10:34:57","50.3","36.4","58.7","29.39","305","12.8","38.4","0.24","0.00"
"10:39:59","50.4","35.9","57.4","29.39","288","12.7","32.4","0.24","0.00"
"10:44:57","50.6","36.2","57.7","29.39","299","15.3","32.4","0.24","0.00"
"10:49:57","50.7","36.1","57.2","29.39","331","11.9","27.6","0.24","0.00"
"10:54:59","50.3","35.8","57.3","29.39","326","12.8","30","0.24","0.00"
"10:59:56","49.7","35.5","58","29.40","300","12.9","28.8","0.24","0.00"
"11:04:57","49.7","35.9","59.1","29.40","299","8.5","26.5","0.24","0.00"
"11:09:59","49.5","35.7","58.7","29.40","295","10.2","23","0.24","0.00"
"11:14:58","49.9","35.1","56.7","29.41","298","11.8","27.6","0.24","0.00"
"11:19:59","50.2","35.3","56.4","29.41","348","10.7","25.3","0.24","0.00"
"11:24:56","50.5","35.4","56","29.41","318","9.4","23","0.24","0.00"
"11:29:57","51","35.6","55.6","29.41","286","8.9","16.1","0.24","0.00"
"11:34:58","51.8","36.5","55.9","29.41","294","8.2","18.4","0.24","0.00"
"11:39:56","52","36.1","54.5","29.41","322","11.3","30","0.24","0.00"
"11:44:57","51.1","35.1","54.2","29.41","309","12.5","27.6","0.24","0.00"
"11:49:58","50.7","35","54.7","29.41","316","12.9","23","0.24","0.00"
"11:54:59","50.2","35.1","56","29.41","294","9.4","19.6","0.24","0.00"
"11:59:56","50","35.2","56.6","29.42","310","8.7","18.4","0.24","0.00"
"12:04:56","50.1","35.7","57.5","29.42","292","6.4","16.1","0.24","0.00"
"12:09:58","50.9","35.9","56.4","29.42","301","6.2","15.6","0.24","0.00"
"12:14:56","50.7","34.7","54.2","29.42","280","7.7","16.1","0.24","0.00"
"12:19:57","50.1","33.8","53.3","29.42","272","7.5","20.4","0.24","0.00"
"12:34:59","49.9","33.8","53.8","29.43","275","7.1","16.1","0.24","0.00"
"12:39:57","50","34.7","55.6","29.43","280","6.2","18.4","0.24","0.00"
"12:44:59","50.2","34.4","54.6","29.43","275","8.7","25.3","0.24","0.00"
"12:49:59","50.1","33.7","53.3","29.43","293","7.3","20.4","0.24","0.00"
"12:54:57","49.9","33.4","52.9","29.43","254","6.8","20.7","0.24","0.00"
"12:59:57","50.6","32.4","49.6","29.43","304","11.5","21.6","0.24","0.00"
"13:04:59","51.5","32.6","48.3","29.43","258","7.5","28.8","0.24","0.00"
"13:09:57","52","32.4","47","29.43","298","10.8","21.9","0.24","0.00"
"13:14:59","52","31.7","45.9","29.43","293","11.1","28.8","0.24","0.00"
"13:15:31","51.8","31.2","45","29.42","303","17.5","27.6","0.24","0.00"
"13:29:58","52.3","32.7","47","29.43","275","10.4","20.7","0.24","0.00"
"13:34:59","52.3","32.4","46.5","29.43","284","9.8","23","0.24","0.00"
"13:39:58","51.9","32.1","46.6","29.43","300","9","21.9","0.24","0.00"
"13:44:59","51.3","31.9","47.4","29.43","269","10","24.2","0.24","0.00"
"13:49:58","51.8","32.8","48.4","29.43","262","8.6","20.7","0.24","0.00"
"13:54:58","52.4","32.2","46","29.43","286","8.1","21.6","0.24","0.00"
"13:59:57","52.5","32.6","46.4","29.44","290","7.6","21.9","0.24","0.00"
"14:04:58","52.7","32.3","45.6","29.44","270","7.5","17.3","0.24","0.00"
"14:09:56","52.4","31.8","45.2","29.44","279","10","19.6","0.24","0.00"
"14:14:59","51.7","32.3","47.3","29.45","262","7.9","19.2","0.24","0.00"
"14:19:56","51.8","31.8","46.2","29.45","271","8.9","19.6","0.24","0.00"
"14:24:57","52.2","32.2","46.3","29.45","282","7.2","17.3","0.24","0.00"
"14:29:57","53.2","33.8","47.6","29.46","281","6.6","19.2","0.24","0.00"
"14:34:58","53.1","33.4","47","29.46","277","7.6","19.6","0.24","0.00"
"14:39:56","52.6","32","45.3","29.46","281","7.2","21.6","0.24","0.00"
"14:44:57","51.8","31.1","44.9","29.48","295","8.6","25.2","0.24","0.00"
"14:49:58","50.8","30.8","46.1","29.48","308","9.1","25.3","0.24","0.00"
"14:54:59","50.7","31","46.8","29.48","299","9.1","26.5","0.24","0.00"
"14:59:56","50.2","30.7","47.1","29.49","305","8.4","19.6","0.24","0.00"
"15:04:57","50","30.8","47.5","29.49","324","10.3","21.9","0.24","0.00"
"15:09:59","50","31.3","48.3","29.49","286","6.4","16.1","0.24","0.00"
"15:14:58","50","31.5","48.8","29.50","275","4.3","15","0.24","0.00"
"15:19:59","49.9","30.6","47.3","29.50","274","7.7","25.3","0.24","0.00"
"15:24:57","49.5","30.5","47.8","29.50","301","7.1","27.6","0.24","0.00"
"15:29:57","48.6","30.9","50.1","29.52","324","10.3","21.9","0.24","0.00"
"15:34:58","48","30.6","50.9","29.52","306","9.3","21.9","0.24","0.00"
"15:39:56","47.3","30.5","51.8","29.52","312","7.9","20.7","0.24","0.00"
"15:44:57","46.8","29.9","51.6","29.54","324","9.5","24","0.24","0.00"
"15:49:58","46.2","29.5","52","29.54","321","12","28.8","0.24","0.00"
"15:54:59","45.5","29.1","52.5","29.54","323","8.8","25.2","0.24","0.00"
"15:59:59","45","29.2","53.7","29.56","305","5.6","15","0.24","0.00"
"16:04:59","44.7","29.2","54.4","29.56","325","4.7","10.8","0.24","0.00"
"16:09:57","44.5","29","54.3","29.56","307","5.2","13.2","0.24","0.00"
"16:14:56","44.6","29","54","29.57","325","7","15","0.24","0.00"
"16:19:56","44.6","29","54","29.57","330","5.9","15.6","0.24","0.00"
"16:24:57","44.2","28.8","54.3","29.57","332","7.2","20.7","0.24","0.00"
"16:29:58","43.9","28.5","54.5","29.58","326","6.6","13.2","0.24","0.00"
"16:34:59","43.6","28.5","55","29.58","306","4.6","15","0.24","0.00"
"16:39:57","43.4","28.6","55.8","29.58","305","5","16.1","0.24","0.00"
"16:44:58","43.3","28.6","56","29.59","301","3.7","8.4","0.24","0.00"
"16:49:59","43.2","28.3","55.6","29.59","302","4.9","8.4","0.24","0.00"
"16:54:56","43.1","28","55","29.59","293","4.3","13.2","0.24","0.00"
"16:59:57","43.2","27.6","53.8","29.59","283","4.4","12","0.24","0.00"
"17:04:58","43.2","27.4","53.3","29.59","291","5.3","19.6","0.24","0.00"
"17:09:56","43.1","27.1","53","29.59","303","5.2","13.2","0.24","0.00"
"17:14:59","43.1","27.1","53","29.59","304","5.5","18","0.24","0.00"
"17:19:56","43.1","26.7","52.1","29.59","316","7.4","19.6","0.24","0.00"
"17:24:58","43.2","26.6","51.8","29.59","310","6.7","16.1","0.24","0.00"
"17:29:59","43.2","26.5","51.5","29.60","322","7.4","16.1","0.24","0.00"
"17:34:57","43.2","26.6","51.7","29.60","286","5.2","20.4","0.24","0.00"
"17:39:59","43.1","26.6","51.8","29.60","308","6.1","15","0.24","0.00"
"17:44:57","43","26.6","52","29.61","305","6.2","15","0.24","0.00"
"17:49:58","43","26.6","52.1","29.61","308","5.5","15","0.24","0.00"
"17:54:56","42.8","26.8","53","29.61","298","5.4","16.1","0.24","0.00"
"17:59:57","42.7","26.7","53","29.62","296","5.7","13.2","0.24","0.00"
"18:04:58","42.7","26.8","53.3","29.62","315","5.1","12","0.24","0.00"
"18:09:56","42.6","27","53.8","29.62","312","6.3","17.3","0.24","0.00"
"18:14:57","42.5","27.2","54.3","29.64","313","5","12","0.24","0.00"
"18:19:59","42.4","27.4","55","29.64","301","4.6","12","0.24","0.00"
"18:24:56","42.4","27.4","54.9","29.64","307","5.3","11.5","0.24","0.00"
"18:29:57","42.6","27.1","54","29.65","281","4.8","13.2","0.24","0.00"
"18:34:59","42.6","27.1","54","29.65","274","4.3","12.7","0.24","0.00"
"18:39:57","42.4","26.7","53.5","29.65","270","4.2","8.4","0.24","0.00"
"18:44:59","42.5","26.6","53.2","29.67","280","3.9","12","0.24","0.00"
"18:49:56","42.4","26.5","53","29.67","277","4.6","13.2","0.24","0.00"
"18:54:58","42.5","26.1","52.1","29.67","280","5.1","17.3","0.24","0.00"
"18:59:56","42.5","26.1","52","29.68","272","3.8","8.4","0.24","0.00"
"19:04:56","42.1","26.2","53.1","29.68","257","3.4","7.2","0.24","0.00"
"19:09:58","41.7","26","53.3","29.68","280","4.6","15","0.24","0.00"
"19:14:58","41.6","25.9","53.5","29.68","254","4.4","8.4","0.24","0.00"
"19:19:59","41.5","25.7","53.2","29.68","270","5.2","13.2","0.24","0.00"
"19:24:57","41.4","25.5","53.1","29.68","267","4","10.8","0.24","0.00"
"19:29:59","41.3","25.4","53","29.69","243","3.6","8.4","0.24","0.00"
"19:34:56","41","25.2","52.9","29.69","245","5.6","18","0.24","0.00"
"19:39:59","41.1","24.8","52.2","29.69","259","5.3","18.4","0.24","0.00"
"19:44:56","41.1","24.5","51.5","29.70","257","4.5","9.6","0.24","0.00"
"19:49:56","41.3","24.6","51.3","29.70","267","4.6","12","0.24","0.00"
"19:54:58","41.3","24.5","51","29.70","281","5.4","15","0.24","0.00"
"19:59:58","41.3","24.7","51.3","29.71","291","5.7","13.2","0.24","0.00"
"20:04:59","41.2","24.7","51.5","29.71","262","5","15","0.24","0.00"
"20:09:57","41.1","23.9","50.2","29.71","273","5.4","13.2","0.24","0.00"
"20:14:56","41","23.1","48.6","29.73","266","5.7","17.3","0.24","0.00"
"20:19:56","40.8","22.9","48.5","29.73","304","4.7","13.2","0.24","0.00"
"20:24:57","40.7","23","49","29.73","289","5.5","15","0.24","0.00"
"20:29:56","40.3","23.1","49.9","29.73","270","5.7","13.2","0.24","0.00"
"20:34:58","40","22.8","50","29.73","295","7.2","20.4","0.24","0.00"
"20:39:57","40","22.9","50.2","29.73","289","6","13.2","0.24","0.00"
"20:44:58","39.9","22.8","50.3","29.73","287","5.6","17.3","0.24","0.00"
"20:49:56","39.7","22.9","50.6","29.73","269","7.1","21.9","0.24","0.00"
"20:54:58","39.7","23","51","29.73","284","6.6","13.2","0.24","0.00"
"20:59:59","39.6","23","51.3","29.73","262","6.6","15","0.24","0.00"
"21:04:59","39.5","23.3","52","29.73","281","7.1","16.1","0.24","0.00"
"21:09:57","39.3","23.4","52.5","29.73","252","3.7","14.4","0.24","0.00"
"21:14:57","39.1","23.4","53","29.74","273","4.6","15","0.24","0.00"
"21:19:58","39","23.4","53.3","29.74","269","4.5","15","0.24","0.00"
"21:24:56","38.7","23.6","54.2","29.74","279","6.5","13.2","0.24","0.00"
"21:29:57","38.6","23.6","54.7","29.75","265","5.9","18","0.24","0.00"
"21:34:59","38.4","24","55.7","29.75","262","5.1","18.4","0.24","0.00"
"21:39:57","38.2","24","56.1","29.75","269","4.8","16.8","0.24","0.00"
"21:44:59","38.1","23.9","56.2","29.75","266","5.7","18.4","0.24","0.00"
"21:49:56","38.1","23.8","56","29.75","279","6.9","18.4","0.24","0.00"
"21:54:58","38.1","23.8","56","29.75","263","5.4","15","0.24","0.00"
"21:59:55","38.1","23.8","56","29.75","288","5.9","16.1","0.24","0.00"
"22:04:56","38","23.8","56.4","29.75","307","6.6","18.4","0.24","0.00"
"22:09:58","37.9","23.6","56","29.75","285","6.3","19.6","0.24","0.00"
"22:14:58","37.8","23.9","57","29.75","293","3.5","13.2","0.24","0.00"
"22:19:59","37.6","23.7","57","29.75","289","5.2","15","0.24","0.00"
"22:24:57","37.5","23.7","57.2","29.75","277","3.3","8.4","0.24","0.00"
"22:29:58","37.2","23.8","58","29.75","300","3.2","7.2","0.24","0.00"
"22:34:56","37","23.6","58","29.74","317","5.4","16.8","0.24","0.00"
"22:39:59","37","23.6","58","29.74","289","3.8","17.3","0.24","0.00"
"22:44:56","36.7","23.5","58.5","29.74","314","3","10.8","0.24","0.00"
"22:49:58","36.5","23.5","59","29.74","287","3.1","10.8","0.24","0.00"
"22:54:56","36.3","23.4","59.2","29.74","277","2.2","8.4","0.24","0.00"
"22:59:57","36.1","23.2","59.2","29.74","246","2.5","6","0.24","0.00"
"23:04:57","36","23.1","59.1","29.73","267","2.6","7.2","0.24","0.00"
"23:09:56","36","23","59","29.73","270","3.1","12","0.24","0.00"
"23:14:59","36.1","23.1","58.8","29.75","253","4.4","11.5","0.24","0.00"
"23:19:56","36.1","23","58.7","29.75","244","2.8","6.9","0.24","0.00"
"23:24:58","36","22.9","58.7","29.75","269","3.8","6","0.24","0.00"
"23:29:56","35.9","22.9","58.8","29.76","259","3.5","7.2","0.24","0.00"
"23:34:58","35.8","22.8","58.8","29.76","237","3.3","6.9","0.24","0.00"
"23:39:56","35.6","22.7","59","29.76","241","3.4","8.4","0.24","0.00"
"23:44:58","35.6","22.7","59","29.77","232","3.5","7.2","0.24","0.00"
"23:49:59","35.5","22.6","59","29.77","249","4","10.8","0.24","0.00"
"23:54:57","35.6","22.7","59","29.77","227","3.5","7.2","0.24","0.00"
